NOAA 16 DEB, 41412

Orbit data source: Space-Track

NOAA 16 DEB, 41412 is space debris in SSO originally from a launch on Thu, 21 Sep 2000 UTC launched from the Air Force Western Test Range (AFWTR). Debris objects in space refer to the collection of defunct objects orbiting the Earth. Examples of debris include non-operational satellites, rocket bodies, and fragments generated from explosions, collisions, or faulty payload assembly.

Loading next visibility...
Identifier
41412, 2000-055KR
Orbit
SSO
Country
Flag of USUS
Related business
Manufacturer
Unknown
Mission
Spacecraft
Bus & Motor
Unknown
Mass
Unknown
Launch date (UTC)
2000-09-21 (25 years ago)
Launch vehicle
Unknown
Launch site
Air Force Western Test Range (AFWTR)
Object type
Payload
Rocket body
Debris
Shape & HBR
Unknown shape, 0.1 m
Radar Cross Section
Small (<0.1 m²)

Expand to show TLE details & history
Last TLE update: 1 day ago

TLE from 1 day ago
0 NOAA 16 DEB
1 41412U 00055KR  26035.85635953  .00006176  00000-0  25558-2 0  9999
2 41412  98.6263  59.4649 0026072 124.9915 235.3718 14.26789480513381
Epoch: 2026-02-04T20:33Z
TLE epoch observation values (Epoch: 2026-02-04T20:33:09.463Z)
Latitude
-0.00005°
Longitude
-23.84146°
Altitude
816.082 km
Speed
7.44 km/s
True Right ascension
03h 57m 51s
True Declination
0° 00' 00"
Sunlit
Object was in daylight at epoch
Visualization orbit readout
Latitude
Unknown
Longitude
Unknown
Altitude
Unknown
Speed
Unknown
Apparent Right ascension
Unknown
Apparent Declination
Unknown
Sunlit
N/A
Visualization observer readout
Local Sidereal Time
07:58:35
Azimuth
Unknown
Elevation
Unknown
Doppler factor
Unknown
Orbital elements
Apogee altitude
818.342 km
Perigee altitude
780.914 km
Semi-major axis
7,177.765 km
Eccentricity
0.00261
Inclination
98.6263°
RAAN
59.4649°
Arg. of periapsis
124.9915°
True anomaly
235.12642°
Mean anomaly
235.3718°
Eccentric anomaly
235.24906°
Mean motion
3.5691 °/min
Orbital period
100.87 mins
BSTAR
0.0025558
Loading maneuver chart data...
Computing Atmospheric mass density...
Loading historical data...
Loading historical data...
Loading historical data...
Loading historical data...
Loading historical data...
Loading historical data...
Loading historical data...

Documentation

Showing up to 5 results
|